This is the latest recevied weather packets stored in our database for station/object K5OBH. If no packets are shown the sender has not sent any weather packets the latest 10 day(s).
| Time | Temp. | Humidity | Pressure | Rain* | Wind** | Luminosity | Snow |
|---|---|---|---|---|---|---|---|
| 1777672406 | 20° C | 41% | 1016.3 hPa | 0 mm | - | 187 W/m² | - |
| 1777672101 | 20° C | 41% | 1016.1 hPa | 0 mm | - | 166 W/m² | - |
| 1777671796 | 20.56° C | 41% | 1016.6 hPa | 0 mm | - | 287 W/m² | - |
| 1777671493 | 20° C | 40% | 1016.2 hPa | 0 mm | - | 338 W/m² | - |
| 1777671189 | 20.56° C | 40% | 1016.4 hPa | 0 mm | - | 222 W/m² | - |
| 1777670885 | 20.56° C | 39% | 1016.3 hPa | 0 mm | - | 248 W/m² | - |
| 1777670582 | 20.56° C | 40% | 1016.4 hPa | 0 mm | - | 268 W/m² | - |
| 1777670279 | 20.56° C | 38% | 1016.3 hPa | 0 mm | - | 276 W/m² | - |
| 1777669977 | 20.56° C | 36% | 1016.6 hPa | 0 mm | - | 295 W/m² | - |
| 1777669673 | 21.11° C | 35% | 1016.7 hPa | 0 mm | - | 465 W/m² | - |
| 1777669370 | 21.11° C | 38% | 1016.6 hPa | 0 mm | - | 397 W/m² | - |
| 1777669066 | 21.11° C | 36% | 1016.7 hPa | 0 mm | - | 424 W/m² | - |
| 1777668763 | 20.56° C | 38% | 1016.7 hPa | 0 mm | - | 433 W/m² | - |
| 1777668460 | 20.56° C | 40% | 1016.6 hPa | 0 mm | - | 547 W/m² | - |
| 1777668157 | 20.56° C | 38% | 1016.8 hPa | 0 mm | - | 610 W/m² | - |
| 1777667853 | 20.56° C | 41% | 1016.7 hPa | 0 mm | - | 581 W/m² | - |
| 1777667551 | 20° C | 41% | 1017 hPa | 0 mm | - | 268 W/m² | - |
| 1777667247 | 20° C | 42% | 1017.1 hPa | 0 mm | - | 242 W/m² | - |
| 1777666944 | 20.56° C | 41% | 1016.9 hPa | 0 mm | - | 539 W/m² | - |
| 1777666641 | 20.56° C | 40% | 1017.2 hPa | 0 mm | - | 343 W/m² | - |
| 1777666338 | 21.11° C | 41% | 1017 hPa | 0 mm | - | 647 W/m² | - |
| 1777666035 | 20.56° C | 42% | 1017 hPa | 0 mm | - | 390 W/m² | - |
| 1777665732 | 20° C | 41% | 1017.4 hPa | 0 mm | - | 279 W/m² | - |
| 1777665429 | 20.56° C | 39% | 1017.4 hPa | 0 mm | - | 622 W/m² | - |
| 1777665125 | 21.11° C | 43% | 1017.3 hPa | 0 mm | - | 712 W/m² | - |
* Rain latest hour (hover to see other rain measurements)
** Current wind speed in m/s (hover to see current wind gust speed)